User: anonymous   Login
Location: B
(0.0000°N, 0.0000°E)
Time: 06:25:35
(UTC+02:00)
Language:

Cosmos 1025 Rocket - Orbit

View from above orbital plane
View from above orbital plane
View from above satellite
View from above satellite

Ground track
Ground track

The orbit data is extracted from the following two-line orbital elements,

1 10974U 78067B   15090.45938463  .00000887  00000-0  96266-4 0  9992
2 10974 082.4837 214.9793 0018569 139.5210 220.7393 14.86921841987374
Epoch (UTC): 31 March 2015 11:01:30
Eccentricity: 0.0018569
inclination: 82.4837°
perigee height: 594 km
apogee height: 620 km
right ascension of ascending node: 214.9793°
argument of perigee: 139.5210°
revolutions per day: 14.86921841
mean anomaly at epoch: 220.7393°
orbit number at epoch: 98737

The dashed part of the orbit path shows where the satellite is in the earth's shadow,  

DLR